Location: Miles
(41.4492°N, 81.6087°W)
Time: 01:08:10
(UTC+00:00)

Courier 1B Rocket - Pass Details

Date: 15 September 2024
Orbit: 920 x 1201 km, 28.3° (Epoch: 15 October)

Event Time Altitude Azimuth Distance (km) Brightness Sun altitude
Rises 00:15:52 0° 253° (WSW) 3,829 9.3 -8.2°
Reaches altitude 10° 00:18:58 10° 241° (WSW) 2,921 8.3 -8.7°
Maximum altitude 00:24:48 27° 187° (S) 2,018 6.6 -9.8°
Drops below altitude 10° 00:30:55 10° 133° (SE) 3,070 7.1 -10.9°
Enters shadow 00:31:18 - 132° (SE) 3,174 7.1 -11.0°
Sets 00:34:16 0° 122° (ESE) 4,060 - -11.5°
